Date String (YYYY-MM-DD hh:mm:ss) UTC,Instrument flags,Ambient pressure (hPa),Sample flow (lpm),Bypass flow (lpm),Sample temperature (°C),Ambient temperature (°C),ASC tube jacket temperature (°C),LED temperature (°C),Box temperature (°C),Sample RH (%),Span deviation,Mass concentration (μg/m³),Mass concentration (μg/m³),Mass concentration (μg/m³)
DateTimeUTC,F1_M11,P_M11,Q1_M11,Q2_M11,T1_M11,T2_M11,T3_M11,T4_M11,T5_M11,U1_M11,ZSPAN_M11,X0_M11,X2_M11,X1_M11
2021-12-28 22:00:00,,0809.7,4.99,0.00,22.2,21.9,00.0,31.1,23.9,06.7,0000.0,0012.92,0002.39,0000.83
2021-12-28 22:01:00,,0809.7,5.01,0.00,22.2,21.8,00.0,31.1,23.8,06.7,0000.0,0013.00,0002.40,0000.83
2021-12-28 22:02:00,,0809.9,5.01,0.00,22.1,21.7,00.0,31.1,23.8,06.7,0000.0,0012.57,0002.34,0000.83
2021-12-28 22:03:00,,0809.9,4.99,0.00,22.1,21.7,00.0,31.1,23.8,06.7,0000.0,0012.39,0002.27,0000.83
2021-12-28 22:04:00,,0810.0,5.01,0.00,22.1,21.6,00.0,31.1,23.7,06.7,0000.0,0011.18,0002.23,0000.84
2021-12-28 22:05:00,,0809.9,4.98,0.00,22.1,21.5,00.0,31.1,23.8,06.7,0000.0,0011.09,0002.24,0000.84
2021-12-28 22:06:00,,0810.0,5.00,0.00,22.1,21.5,00.0,31.1,23.7,06.7,0000.0,0010.77,0002.32,0000.85
2021-12-28 22:07:00,,0810.0,5.00,0.00,22.0,21.4,00.0,31.1,23.7,06.7,0000.0,0010.44,0002.36,0000.86
2021-12-28 22:08:00,,0809.9,5.00,0.00,22.0,21.4,00.0,31.1,23.6,06.7,0000.0,0010.42,0002.44,0000.86
2021-12-28 22:09:00,,0809.9,5.01,0.00,22.0,21.3,00.0,31.1,23.6,06.7,0000.0,0010.33,0002.48,0000.86
2021-12-28 22:10:00,,0809.9,5.00,0.00,22.0,21.3,00.0,31.1,23.6,06.7,0000.0,0010.12,0002.48,0000.86
2021-12-28 22:11:00,,0809.9,5.00,0.00,21.9,21.2,00.0,31.0,23.5,06.7,0000.0,0010.12,0002.47,0000.86
2021-12-28 22:12:00,,0809.9,4.99,0.00,21.9,21.2,00.0,31.0,23.5,06.7,0000.0,0009.54,0002.54,0000.87
2021-12-28 22:13:00,,0809.9,5.01,0.00,21.8,21.1,00.0,31.0,23.4,06.8,0000.0,0010.68,0002.54,0000.87
2021-12-28 22:14:00,,0809.9,5.01,0.00,21.8,20.9,00.0,31.0,23.3,06.8,0000.0,0010.92,0002.58,0000.87
2021-12-28 22:15:00,,0809.9,5.00,0.00,21.8,20.8,00.0,31.0,23.3,06.8,0000.0,0010.94,0002.61,0000.88
2021-12-28 22:16:00,,0810.0,4.99,0.00,21.7,20.8,00.0,30.9,23.3,06.8,0000.0,0011.09,0002.65,0000.89
2021-12-28 22:17:00,,0809.9,5.00,0.00,21.7,20.8,00.0,30.9,23.2,06.8,0000.0,0010.92,0002.71,0000.90
2021-12-28 22:18:00,,0809.9,5.02,0.00,21.7,20.8,00.0,30.9,23.2,06.8,0000.0,0010.18,0002.59,0000.89
2021-12-28 22:19:00,,0809.9,4.99,0.00,21.7,20.9,00.0,30.9,23.2,06.9,0000.0,0009.46,0002.53,0000.90
2021-12-28 22:20:00,,0809.9,5.01,0.00,21.7,20.9,00.0,30.9,23.2,06.9,0000.0,0009.93,0002.51,0000.91
2021-12-28 22:21:00,,0809.9,4.99,0.00,21.7,20.9,00.0,30.8,23.3,06.9,0000.0,0010.31,0002.50,0000.90
2021-12-28 22:22:00,,0809.9,5.01,0.00,21.6,20.9,00.0,30.8,23.3,06.9,0000.0,0010.55,0002.47,0000.92
2021-12-28 22:23:00,,0809.9,5.01,0.00,21.7,21.0,00.0,30.8,23.3,06.9,0000.0,0010.73,0002.46,0000.93
2021-12-28 22:24:00,,0809.9,4.99,0.00,21.7,21.0,00.0,30.8,23.3,06.9,0000.0,0010.30,0002.50,0000.93
2021-12-28 22:25:00,,0809.9,5.01,0.00,21.7,21.0,00.0,30.8,23.3,06.9,0000.0,0010.34,0002.55,0000.95
2021-12-28 22:26:00,,0810.0,4.99,0.00,21.7,21.0,00.0,30.8,23.3,06.9,0000.0,0010.45,0002.60,0000.95
2021-12-28 22:27:00,,0809.9,5.02,0.00,21.7,21.0,00.0,30.8,23.3,07.0,0000.0,0010.45,0002.59,0000.95
2021-12-28 22:28:00,,0809.9,4.99,0.00,21.7,20.9,00.0,30.8,23.3,06.9,0000.0,0011.39,0002.55,0000.97
2021-12-28 22:29:00,,0810.0,4.99,0.00,21.6,20.9,00.0,30.8,23.3,06.9,0000.0,0011.90,0002.55,0000.98
2021-12-28 22:30:00,,0810.1,5.02,0.00,21.6,20.9,00.0,30.7,23.3,06.9,0000.0,0011.98,0002.52,0000.98
2021-12-28 22:31:00,,0810.1,4.99,0.00,21.6,21.0,00.0,30.7,23.3,07.0,0000.0,0011.83,0002.50,0001.00
2021-12-28 22:32:00,,0810.1,5.01,0.00,21.6,21.0,00.0,30.7,23.3,06.9,0000.0,0012.60,0002.58,0001.03
2021-12-28 22:33:00,,0810.1,4.99,0.00,21.6,21.0,00.0,30.7,23.3,06.9,0000.0,0012.35,0002.55,0001.03
2021-12-28 22:34:00,,0810.1,5.01,0.00,21.6,21.0,00.0,30.7,23.2,06.9,0000.0,0012.11,0002.53,0001.05
2021-12-28 22:35:00,,0810.2,4.99,0.00,21.6,21.0,00.0,30.7,23.2,06.9,0000.0,0011.84,0002.49,0001.07
2021-12-28 22:36:00,,0810.2,5.00,0.00,21.6,21.3,00.0,30.7,23.3,06.9,0000.0,0012.77,0002.50,0001.06
2021-12-28 22:37:00,,0810.3,5.01,0.00,21.8,22.1,00.0,30.8,23.7,06.8,0000.0,0013.45,0002.47,0001.06
2021-12-28 22:38:00,,0810.2,5.00,0.00,21.9,22.8,00.0,30.8,23.9,06.8,0000.0,0013.68,0002.51,0001.07
2021-12-28 22:39:00,,0810.2,5.00,0.00,22.0,22.7,00.0,30.9,24.0,06.8,0000.0,0013.68,0002.55,0001.08
2021-12-28 22:40:00,,0810.2,5.00,0.00,22.0,22.4,00.0,30.9,23.9,06.7,0000.0,0013.23,0002.59,0001.09
2021-12-28 22:41:00,,0810.2,5.00,0.00,22.0,22.2,00.0,30.9,23.8,06.7,0000.0,0014.03,0002.71,0001.12
2021-12-28 22:42:00,,0810.2,5.01,0.00,22.0,22.0,00.0,30.9,23.7,06.7,0000.0,0013.88,0002.75,0001.13
2021-12-28 22:43:00,,0810.2,4.99,0.00,22.0,21.8,00.0,30.9,23.7,06.7,0000.0,0013.67,0002.84,0001.14
2021-12-28 22:44:00,,0810.3,5.00,0.00,22.0,21.7,00.0,30.9,23.7,06.7,0000.0,0013.40,0002.88,0001.15
2021-12-28 22:45:00,,0810.2,5.01,0.00,21.9,21.6,00.0,30.9,23.6,06.8,0000.0,0013.79,0002.95,0001.17
2021-12-28 22:46:00,,0810.2,4.98,0.00,21.9,21.5,00.0,30.9,23.5,06.8,0000.0,0013.77,0003.02,0001.18
2021-12-28 22:47:00,,0810.2,5.02,0.00,21.9,21.4,00.0,30.9,23.5,06.8,0000.0,0013.01,0002.98,0001.19
2021-12-28 22:48:00,,0810.2,4.99,0.00,21.9,21.3,00.0,30.9,23.5,06.8,0000.0,0012.84,0003.03,0001.21
2021-12-28 22:49:00,,0810.1,5.01,0.00,21.9,21.3,00.0,30.9,23.5,06.8,0000.0,0012.51,0002.99,0001.22
2021-12-28 22:50:00,,0810.1,4.99,0.00,21.8,21.3,00.0,30.9,23.5,06.8,0000.0,0012.59,0002.96,0001.22
2021-12-28 22:51:00,,0810.1,5.01,0.00,21.8,21.3,00.0,30.9,23.5,06.8,0000.0,0012.61,0003.03,0001.21
2021-12-28 22:52:00,,0810.1,5.00,0.00,21.8,21.3,00.0,30.9,23.5,06.8,0000.0,0012.09,0003.06,0001.20
2021-12-28 22:53:00,,0810.1,4.99,0.00,21.8,21.3,00.0,30.9,23.5,06.8,0000.0,0012.70,0003.09,0001.20
2021-12-28 22:54:00,,0810.1,5.00,0.00,21.8,21.2,00.0,30.9,23.5,06.7,0000.0,0012.62,0003.07,0001.18
2021-12-28 22:55:00,,0810.1,5.02,0.00,21.8,21.2,00.0,30.9,23.5,06.7,0000.0,0012.31,0003.06,0001.17
2021-12-28 22:56:00,,0810.2,4.99,0.00,21.8,21.2,00.0,30.9,23.4,06.7,0000.0,0012.26,0003.02,0001.14
2021-12-28 22:57:00,,0810.3,5.00,0.00,21.8,21.1,00.0,30.9,23.4,06.7,0000.0,0012.47,0003.05,0001.14
2021-12-28 22:58:00,,0810.2,5.00,0.00,21.8,21.1,00.0,30.9,23.4,06.7,0000.0,0011.92,0003.05,0001.13
2021-12-28 22:59:00,,0810.2,5.00,0.00,21.7,21.1,00.0,30.9,23.4,06.7,0000.0,0011.37,0002.97,0001.11
